DW4070 Weather Reports


Display with metric or nautical units.
time (UTC)temp
F
wind
direction
speed
MPH
gust
MPH
rain 1hr
in
rain 24hr
in
rain mn
in
humidity
%
barometer
mb
20260902234510 66 286 0.0 0.0 0.00 0.88 0.88 95 1019.8
20260902233014 66 286 0.0 0.0 0.00 0.88 0.88 95 1020.1
20260902231510 66 286 0.0 0.0 0.00 0.88 0.88 95 1020.4
20260902230009 66 286 0.0 0.0 0.00 0.88 0.88 95 1020.6
20260902224509 66 286 0.0 0.0 0.00 0.88 0.88 95 1020.9
20260902223008 66 286 0.0 0.0 0.00 0.88 0.88 95 1021.3
20260902221508 67 286 0.0 2.0 0.00 0.88 0.88 94 1021.4
20260902220009 67 286 0.0 0.0 0.00 0.88 0.88 95 1021.5
20260902214512 66 286 0.0 0.0 0.00 0.88 0.88 94 1021.2
20260902213006 67 286 0.0 2.0 0.00 0.88 0.88 95 1021.0
20260902211505 66 286 0.0 0.0 0.00 0.88 0.88 95 1021.1
20260902210004 66 286 0.0 0.0 0.02 0.88 0.88 95 1021.1
20260902204504 66 286 0.0 3.0 0.17 0.88 0.88 95 1020.8
20260902203003 66 296 0.0 2.0 0.21 0.88 0.88 95 1020.6
20260902201504 66 303 0.0 5.0 0.25 0.88 0.88 94 1021.0
20260902200002 65 285 1.0 4.0 0.47 0.86 0.86 94 1020.9
20260902194501 65 285 0.0 0.0 0.66 0.71 0.71 94 1021.3
20260902193104 65 285 0.0 0.0 0.67 0.67 0.67 94 1021.4
20260902191610 66 285 0.0 0.0 0.63 0.63 0.63 93 1021.3
20260902190059 66 285 0.0 0.0 0.41 0.41 0.41 91 1022.1
20260902184558 68 285 0.0 2.0 0.06 0.06 0.06 88 1022.7
20260902183105 68 285 0.0 2.0 0.00 0.00 0.00 85 1021.2
20260902181556 68 285 0.0 4.0 0.00 0.00 0.00 85 1021.2
20260902180054 68 284 0.0 9.0 0.00 0.00 0.00 85 1021.5
20260902174601 68 264 0.0 3.0 0.00 0.00 0.00 86 1021.6
20260902173054 68 264 0.0 0.0 0.00 0.00 0.00 86 1021.8
20260902171558 68 264 0.0 0.0 0.00 0.00 0.00 87 1021.9
20260902170054 68 264 0.0 2.0 0.00 0.00 0.00 88 1021.9
20260902164557 68 264 0.0 4.0 0.00 0.04 0.00 86 1022.0
20260902163052 68 263 0.0 2.0 0.00 0.04 0.00 85 1022.0
20260902161554 68 262 0.0 3.0 0.00 0.04 0.00 84 1021.9
20260902160055 68 264 0.0 2.0 0.00 0.04 0.00 84 1022.0
20260902154605 69 264 0.0 3.0 0.00 0.11 0.00 85 1022.0
20260902153050 69 264 0.0 3.0 0.00 0.11 0.00 82 1022.2
20260902151550 69 264 0.0 5.0 0.00 0.11 0.00 85 1022.0
20260902150048 69 264 0.0 4.0 0.00 0.11 0.00 84 1022.1
20260902144545 68 264 0.0 4.0 0.00 0.22 0.00 86 1021.9
20260902143040 66 264 0.0 5.0 0.00 0.22 0.00 90 1021.6
20260902141537 65 262 0.0 2.0 0.00 0.22 0.00 90 1022.4
20260902140046 65 262 0.0 0.0 0.00 0.22 0.00 90 1022.5
20260902134533 64 261 0.0 0.0 0.00 0.23 0.00 92 1022.2
20260902133030 64 262 0.0 0.0 0.00 0.23 0.00 91 1022.0
20260902131529 64 261 0.0 0.0 0.00 0.23 0.00 92 1021.8
20260902130029 63 261 0.0 0.0 0.00 0.23 0.00 92 1021.8
20260902124526 63 261 0.0 0.0 0.00 0.23 0.00 92 1021.8
20260902123025 63 262 0.0 0.0 0.00 0.23 0.00 92 1021.6
20260902121525 62 261 0.0 0.0 0.00 0.23 0.00 92 1021.6
20260902120026 62 262 0.0 1.0 0.00 0.23 0.00 93 1021.6
20260902114540 62 261 0.0 2.0 0.00 0.23 0.00 93 1021.7
20260902113023 62 245 0.0 0.0 0.00 0.23 0.00 94 1021.7
20260902111523 62 245 0.0 0.0 0.00 0.23 0.00 94 1021.8
20260902110021 62 273 0.0 0.0 0.00 0.23 0.00 94 1021.6
20260902104518 62 273 0.0 0.0 0.00 0.23 0.00 95 1021.4
20260902103016 62 273 0.0 0.0 0.00 0.23 0.00 95 1021.3
20260902101516 62 273 0.0 0.0 0.00 0.23 0.00 95 1021.2
20260902100012 62 273 0.0 0.0 0.00 0.23 0.00 95 1021.2
20260902094511 62 273 0.0 0.0 0.00 0.23 0.00 95 1021.2
20260902093017 62 273 0.0 0.0 0.00 0.23 0.00 95 1021.0
20260902091510 62 273 0.0 0.0 0.00 0.23 0.00 95 1021.0
20260902090005 62 273 0.0 0.0 0.00 0.23 0.00 95 1020.7
20260902084510 63 273 0.0 0.0 0.00 0.23 0.00 95 1020.6
20260902083004 63 273 0.0 0.0 0.00 0.23 0.00 95 1020.5
20260902081500 63 273 0.0 1.0 0.00 0.23 0.00 95 1020.4
20260902080108 63 273 0.0 2.0 0.00 0.23 0.00 95 1020.0
20260902074602 63 273 0.0 0.0 0.00 0.24 0.00 94 1020.0
20260902073109 63 273 0.0 0.0 0.00 0.24 0.00 94 1019.9
20260902071603 63 273 0.0 2.0 0.00 0.24 0.00 94 1019.8
20260902070057 63 273 0.0 0.0 0.00 0.24 0.00 94 1019.8
20260902064556 63 273 0.0 0.0 0.00 0.48 0.00 94 1019.9
20260902063055 63 273 0.0 0.0 0.00 0.48 0.00 94 1020.0
20260902061615 63 273 0.0 0.0 0.00 0.48 0.00 94 1020.1
20260902060058 63 273 0.0 0.0 0.00 0.48 0.00 94 1020.1
20260902054552 63 273 0.0 0.0 0.00 0.80 0.00 94 1020.0
20260902053052 63 273 0.0 0.0 0.00 0.80 0.00 94 1020.1
20260902051551 63 273 0.0 1.0 0.00 0.80 0.00 94 1020.1
20260902050049 63 273 0.0 0.0 0.00 0.80 0.00 94 1019.8
20260902044549 63 273 0.0 0.0 0.00 0.88 0.00 93 1020.0
20260902043052 63 273 0.0 0.0 0.00 0.88 0.00 93 1020.0
20260902041604 63 273 0.0 0.0 0.00 0.88 0.00 93 1019.9
20260902040047 63 273 0.0 0.0 0.00 0.88 0.00 93 1019.6
20260902034543 63 273 0.0 0.0 0.00 0.88 0.88 93 1019.4
20260902033043 64 273 0.0 3.0 0.00 0.88 0.88 93 1019.2
20260902031540 64 273 0.0 2.0 0.00 0.88 0.88 93 1019.1
20260902030039 64 273 0.0 2.0 0.00 0.88 0.88 93 1019.2
20260902024544 64 273 1.0 6.0 0.00 0.88 0.88 92 1019.0
20260902023039 64 263 0.0 5.0 0.00 0.88 0.88 92 1019.1
20260902021546 64 261 0.0 2.0 0.00 0.88 0.88 92 1018.9
20260902020036 64 309 0.0 2.0 0.00 0.88 0.88 92 1018.8
20260902014537 65 333 0.0 2.0 0.00 0.88 0.88 92 1018.2
20260902013032 65 346 0.0 4.0 0.00 0.88 0.88 91 1018.2
20260902011531 65 286 0.0 2.0 0.00 0.88 0.88 92 1018.0
20260902010029 66 286 0.0 0.0 0.00 0.88 0.88 91 1017.8
20260902004528 66 285 0.0 4.0 0.00 0.88 0.88 91 1017.9
20260902003028 66 286 1.0 4.0 0.00 0.88 0.88 91 1017.7
20260902001526 66 285 0.0 4.0 0.00 0.88 0.88 91 1017.2
20260902000024 67 285 1.0 3.0 0.00 0.88 0.88 91 1017.1